DW5914 Weather Reports


Display with metric or nautical units.
time (UTC)temp
F
wind
direction
speed
MPH
gust
MPH
rain 1hr
in
rain 24hr
in
rain mn
in
humidity
%
barometer
mb
20260508050059 51 183 4.0 7.0 0.00 0.00 0.00 85 1018.5
20260508044555 51 156 3.0 6.0 0.00 0.00 0.00 84 1018.6
20260508043102 52 178 4.0 9.0 0.00 0.00 0.00 83 1018.8
20260508041553 52 180 4.0 7.0 0.00 0.00 0.00 83 1018.8
20260508040053 52 175 3.0 7.0 0.00 0.00 0.00 83 1018.7
20260508034553 53 203 3.0 9.0 0.00 0.00 0.00 82 1018.5
20260508033052 54 152 4.0 8.0 0.00 0.00 0.00 79 1018.5
20260508031554 56 174 1.0 4.0 0.00 0.00 0.00 76 1018.4
20260508030058 57 138 1.0 4.0 0.00 0.00 0.00 74 1018.4
20260508024557 57 178 2.0 4.0 0.00 0.00 0.00 73 1018.5
20260508023049 58 149 1.0 5.0 0.00 0.00 0.00 72 1018.6
20260508021549 59 210 1.0 5.0 0.00 0.00 0.00 70 1018.7
20260508020049 60 171 2.0 6.0 0.00 0.00 0.00 68 1018.6
20260508014547 60 145 1.0 4.0 0.00 0.00 0.00 70 1018.6
20260508013045 59 211 2.0 7.0 0.00 0.00 0.00 70 1018.9
20260508011544 59 208 2.0 6.0 0.00 0.00 0.00 73 1019.0
20260508010043 59 189 2.0 5.0 0.00 0.00 0.00 73 1019.1
20260508004540 59 192 2.0 6.0 0.00 0.00 0.00 73 1019.4
20260508003039 60 165 1.0 9.0 0.00 0.00 0.00 73 1019.4
20260508001538 61 268 1.0 6.0 0.00 0.00 0.00 71 1019.4
20260508000036 61 327 2.0 4.0 0.00 0.00 0.00 72 1019.4
20260507234540 59 340 1.0 4.0 0.00 0.00 0.00 76 1019.5
20260507233030 58 327 0.0 4.0 0.00 0.00 0.00 77 1019.6
20260507231530 58 327 1.0 4.0 0.00 0.00 0.00 79 1019.7
20260507230030 57 337 2.0 5.0 0.00 0.00 0.00 80 1019.8
20260507224528 58 329 3.0 6.0 0.00 0.00 0.00 79 1019.9
20260507223024 57 31 3.0 5.0 0.00 0.00 0.00 80 1020.1
20260507221522 55 5 1.0 3.0 0.00 0.00 0.00 83 1020.3
20260507220020 55 28 2.0 3.0 0.00 0.00 0.00 82 1020.5
20260507214519 56 28 2.0 4.0 0.00 0.00 0.00 81 1020.7
20260507213019 56 48 1.0 4.0 0.00 0.00 0.00 81 1020.8
20260507211516 55 28 1.0 4.0 0.00 0.00 0.00 83 1021.0
20260507210014 55 22 3.0 5.0 0.00 0.00 0.00 81 1021.1
20260507204513 56 312 0.0 5.0 0.00 0.00 0.00 80 1021.2
20260507203010 56 335 1.0 6.0 0.00 0.00 0.00 81 1021.4
20260507201508 55 51 2.0 6.0 0.00 0.00 0.00 81 1021.6
20260507200007 55 331 2.0 5.0 0.00 0.00 0.00 82 1021.7
20260507194506 55 347 4.0 6.0 0.00 0.00 0.00 80 1021.7
20260507193003 56 324 1.0 4.0 0.00 0.00 0.00 80 1021.9
20260507191503 56 331 3.0 5.0 0.00 0.00 0.00 80 1021.9
20260507190006 56 311 1.0 4.0 0.00 0.00 0.00 81 1022.0
20260507184608 56 15 0.0 4.0 0.00 0.00 0.00 80 1022.1
20260507183103 56 185 0.0 4.0 0.00 0.00 0.00 78 1022.4
20260507181555 56 139 0.0 5.0 0.00 0.00 0.00 78 1022.4
20260507180054 55 275 0.0 4.0 0.00 0.00 0.00 81 1022.4
20260507174554 54 336 1.0 4.0 0.00 0.00 0.00 81 1022.5
20260507173053 54 40 0.0 5.0 0.00 0.00 0.00 81 1022.5
20260507171553 54 326 1.0 4.0 0.00 0.00 0.00 81 1022.3
20260507170055 55 319 1.0 5.0 0.00 0.00 0.00 78 1022.4
20260507164605 56 20 1.0 4.0 0.00 0.00 0.00 79 1022.4
20260507163046 55 169 1.0 4.0 0.00 0.00 0.00 81 1022.3
20260507161547 54 197 1.0 5.0 0.00 0.00 0.00 83 1022.4
20260507160045 53 142 0.0 3.0 0.00 0.00 0.00 85 1022.5
20260507154538 52 192 0.0 4.0 0.00 0.00 0.00 86 1022.7
20260507153038 51 167 2.0 5.0 0.00 0.00 0.00 87 1022.8
20260507151537 50 205 2.0 4.0 0.00 0.00 0.00 87 1022.8
20260507150038 50 189 0.0 3.0 0.00 0.00 0.00 88 1022.9
20260507144537 50 189 1.0 5.0 0.00 0.00 0.00 88 1022.8
20260507143055 50 171 2.0 4.0 0.00 0.00 0.00 88 1022.7
20260507141552 50 187 1.0 3.0 0.00 0.00 0.00 89 1022.7
20260507140035 49 196 1.0 4.0 0.00 0.00 0.00 89 1022.7
20260507134533 49 202 0.0 3.0 0.00 0.00 0.00 89 1022.6
20260507133035 49 205 0.0 2.0 0.00 0.00 0.00 89 1022.5
20260507131538 49 182 1.0 3.0 0.00 0.00 0.00 89 1022.4
20260507130039 49 184 0.0 2.0 0.00 0.00 0.00 89 1022.5
20260507124531 49 182 1.0 3.0 0.00 0.00 0.00 89 1022.6
20260507123030 49 192 2.0 4.0 0.00 0.00 0.00 89 1022.6
20260507121529 49 181 1.0 4.0 0.00 0.00 0.00 89 1022.6
20260507120028 49 207 1.0 4.0 0.00 0.00 0.00 89 1022.7
20260507114530 49 159 0.0 2.0 0.00 0.00 0.00 89 1022.9
20260507113026 49 158 0.0 0.0 0.00 0.00 0.00 88 1022.8
20260507111526 49 158 0.0 1.0 0.00 0.00 0.00 88 1022.8
20260507110026 50 155 0.0 3.0 0.00 0.00 0.00 88 1022.8
20260507104526 50 161 1.0 5.0 0.00 0.00 0.00 88 1022.8
20260507103025 50 168 0.0 2.0 0.00 0.00 0.00 88 1023.0
20260507101522 50 175 0.0 3.0 0.00 0.00 0.00 88 1023.0
20260507100025 50 182 0.0 4.0 0.00 0.00 0.00 88 1022.9
20260507094521 50 175 1.0 6.0 0.00 0.00 0.00 88 1022.8
20260507093019 50 182 2.0 6.0 0.00 0.00 0.00 88 1022.8
20260507091522 50 177 2.0 6.0 0.00 0.00 0.00 88 1022.8
20260507090018 50 148 2.0 8.0 0.00 0.00 0.00 88 1022.7
20260507084517 50 169 3.0 7.0 0.00 0.00 0.00 87 1022.7
20260507083015 50 192 4.0 8.0 0.00 0.00 0.00 87 1022.7
20260507081512 51 167 4.0 7.0 0.00 0.00 0.00 87 1022.7
20260507080010 51 246 3.0 7.0 0.00 0.00 0.00 87 1022.5
20260507074509 51 132 2.0 10.0 0.00 0.00 0.00 87 1022.5
20260507073007 51 220 3.0 8.0 0.00 0.00 0.00 87 1022.6
20260507071504 51 180 4.0 9.0 0.00 0.00 0.00 88 1022.4
20260507070002 51 198 4.0 12.0 0.00 0.00 0.00 87 1022.4
20260507064503 51 205 4.0 11.0 0.00 0.00 0.00 87 1022.2
20260507063126 52 74 3.0 11.0 0.00 0.00 0.00 86 1022.2
20260507061600 52 211 5.0 9.0 0.00 0.00 0.00 86 1022.1
20260507060114 52 164 3.0 12.0 0.00 0.00 0.00 86 1022.0
20260507054608 52 162 4.0 13.0 0.00 0.00 0.00 87 1021.8
20260507053109 52 165 4.0 10.0 0.00 0.00 0.00 87 1022.0
20260507051607 52 173 3.0 17.0 0.00 0.00 0.00 86 1022.1